NSZ1104 EKYT-ENBR

Flight info

Callsign NSZ1104
Flight time 1h 4m
Altitude 30000
Route AMSEV DCT BADAB
Aircraft B38M/M-SDE1FGHILORVWXY/HB1

Departure

Time 2026-05-04 12:43
Airport Aalborg Airport (EKYT)

Arrival

Time 2026-05-04 13:47
Airport Bergen Airport, Flesland (ENBR)
Time Latitude Longitude Altitude Speed Heading
2026-05-04 11:52 57.08707 9.86974 21 ft 0 kts 55°
2026-05-04 11:58 57.08644 9.87054 8 ft 0 kts 55°
2026-05-04 12:32 57.08641 9.87045 22 ft 2 kts 56°
2026-05-04 12:32 57.08621 9.86996 24 ft 2 kts 45°
2026-05-04 12:32 57.08608 9.86981 23 ft 2 kts
2026-05-04 12:33 57.08593 9.86993 22 ft 2 kts 313°
2026-05-04 12:33 57.08584 9.87010 23 ft 1 kts 311°
2026-05-04 12:33 57.08583 9.87013 23 ft 0 kts 311°
2026-05-04 12:33 57.08583 9.87012 23 ft 0 kts 311°
2026-05-04 12:36 57.08591 9.86997 22 ft 3 kts 314°
2026-05-04 12:36 57.08619 9.86945 22 ft 8 kts 315°
2026-05-04 12:36 57.08664 9.86866 23 ft 11 kts 317°
2026-05-04 12:37 57.08739 9.86745 21 ft 16 kts 320°
2026-05-04 12:37 57.08827 9.86614 23 ft 17 kts 322°
2026-05-04 12:37 57.08925 9.86474 21 ft 19 kts 321°
2026-05-04 12:37 57.09029 9.86321 21 ft 20 kts 321°
2026-05-04 12:38 57.09141 9.86166 21 ft 21 kts 322°
2026-05-04 12:38 57.09247 9.86019 21 ft 12 kts 323°
2026-05-04 12:38 57.09289 9.85960 21 ft 6 kts 323°
2026-05-04 12:38 57.09335 9.85946 21 ft 8 kts 34°
2026-05-04 12:39 57.09354 9.86043 21 ft 9 kts 83°
2026-05-04 12:39 57.09363 9.86175 21 ft 12 kts 83°
2026-05-04 12:39 57.09373 9.86335 25 ft 14 kts 83°
2026-05-04 12:39 57.09384 9.86520 21 ft 15 kts 83°
2026-05-04 12:40 57.09398 9.86729 21 ft 17 kts 83°
2026-05-04 12:40 57.09412 9.86961 21 ft 19 kts 83°
2026-05-04 12:40 57.09429 9.87216 23 ft 21 kts 82°
2026-05-04 12:40 57.09447 9.87481 21 ft 15 kts 84°
2026-05-04 12:41 57.09457 9.87645 21 ft 12 kts 78°
2026-05-04 12:41 57.09516 9.87741 23 ft 12 kts 14°
2026-05-04 12:41 57.09603 9.87710 22 ft 14 kts 328°
2026-05-04 12:41 57.09646 9.87560 22 ft 12 kts 266°
2026-05-04 12:42 57.09641 9.87495 23 ft 3 kts 261°
2026-05-04 12:42 57.09640 9.87490 23 ft 0 kts 261°
2026-05-04 12:42 57.09637 9.87445 21 ft 18 kts 263°
2026-05-04 12:42 57.09593 9.86744 21 ft 86 kts 263°
2026-05-04 12:43 57.09502 9.85313 23 ft 138 kts 262°
2026-05-04 12:43 57.09378 9.83436 274 ft 152 kts 264°
2026-05-04 12:43 57.09268 9.81492 1049 ft 153 kts 267°
2026-05-04 12:43 57.09153 9.79487 1746 ft 165 kts 266°
2026-05-04 12:44 57.09023 9.77262 2204 ft 185 kts 266°
2026-05-04 12:44 57.08899 9.74851 2931 ft 192 kts 269°
2026-05-04 12:44 57.09032 9.72364 3594 ft 203 kts 288°
2026-05-04 12:44 57.09777 9.70022 4135 ft 223 kts 308°
2026-05-04 12:45 57.10919 9.68000 4888 ft 232 kts 317°
2026-05-04 12:45 57.12174 9.66078 5642 ft 239 kts 316°
2026-05-04 12:45 57.13468 9.64071 6398 ft 247 kts 316°
2026-05-04 12:45 57.14801 9.62016 7132 ft 253 kts 316°
2026-05-04 12:46 57.16203 9.59857 7549 ft 273 kts 316°
2026-05-04 12:46 57.17681 9.57593 8247 ft 272 kts 316°
2026-05-04 12:46 57.19100 9.55429 9392 ft 265 kts 316°
2026-05-04 12:46 57.20536 9.53233 10032 ft 274 kts 316°
2026-05-04 12:47 57.21981 9.51028 11036 ft 253 kts 315°
2026-05-04 12:47 57.23329 9.48971 12033 ft 253 kts 315°
2026-05-04 12:47 57.24748 9.46788 12097 ft 283 kts 315°
2026-05-04 12:47 57.26342 9.44332 12134 ft 305 kts 315°
2026-05-04 12:48 57.27920 9.41918 13563 ft 278 kts 315°
2026-05-04 12:48 57.29352 9.39733 14980 ft 255 kts 314°
2026-05-04 12:48 57.30711 9.37643 15747 ft 259 kts 314°
2026-05-04 12:48 57.32052 9.35564 15457 ft 295 kts 314°
2026-05-04 12:49 57.33738 9.32952 15187 ft 328 kts 315°
2026-05-04 12:49 57.35510 9.30370 16252 ft 315 kts 318°
2026-05-04 12:49 57.37224 9.28058 17655 ft 297 kts 317°
2026-05-04 12:49 57.38881 9.25792 18399 ft 300 kts 317°
2026-05-04 12:50 57.40616 9.23406 18360 ft 323 kts 317°
2026-05-04 12:50 57.42504 9.20803 18181 ft 350 kts 318°
2026-05-04 12:50 57.44473 9.18094 18729 ft 349 kts 318°
2026-05-04 12:50 57.46361 9.15490 19997 ft 326 kts 317°
2026-05-04 12:51 57.48130 9.13043 21080 ft 314 kts 317°
2026-05-04 12:51 57.49907 9.10577 21299 ft 326 kts 318°
2026-05-04 12:51 57.51787 9.07968 21128 ft 348 kts 318°
2026-05-04 12:51 57.53776 9.05205 21130 ft 362 kts 318°
2026-05-04 12:52 57.55682 9.02566 22608 ft 330 kts 318°
2026-05-04 12:52 57.57528 9.00003 23090 ft 334 kts 318°
2026-05-04 12:52 57.59393 8.97396 23552 ft 333 kts 318°
2026-05-04 12:52 57.61270 8.94766 23696 ft 345 kts 318°
2026-05-04 12:53 57.63241 8.92006 23465 ft 365 kts 318°
2026-05-04 12:53 57.65313 8.89103 23503 ft 376 kts 319°
2026-05-04 12:53 57.67392 8.86190 24045 ft 370 kts 319°
2026-05-04 12:53 57.69388 8.83389 24916 ft 356 kts 319°
2026-05-04 12:54 57.71345 8.80636 25541 ft 352 kts 319°
2026-05-04 12:54 57.73327 8.77843 25624 ft 362 kts 319°
2026-05-04 12:54 57.75380 8.74946 25494 ft 377 kts 319°
2026-05-04 12:54 57.77502 8.71949 25584 ft 384 kts 319°
2026-05-04 12:55 57.79619 8.68956 26174 ft 377 kts 319°
2026-05-04 12:55 57.81677 8.66041 26984 ft 366 kts 319°
2026-05-04 12:55 57.83692 8.63182 27569 ft 361 kts 319°
2026-05-04 12:55 57.85712 8.60310 27668 ft 369 kts 319°
2026-05-04 12:56 57.87801 8.57336 27484 ft 384 kts 319°
2026-05-04 12:56 57.89964 8.54254 27494 ft 393 kts 319°
2026-05-04 12:56 57.92133 8.51160 27979 ft 388 kts 319°
2026-05-04 12:56 57.94249 8.48137 28798 ft 377 kts 319°
2026-05-04 12:57 57.96312 8.45183 29465 ft 371 kts 319°
2026-05-04 12:57 57.98374 8.42224 29660 ft 376 kts 319°
2026-05-04 12:57 58.00444 8.39252 29695 ft 369 kts 319°
2026-05-04 12:57 58.02480 8.36316 29080 ft 368 kts 319°
2026-05-04 12:58 58.04475 8.33434 28968 ft 352 kts 319°
2026-05-04 12:58 58.06384 8.30694 29109 ft 345 kts 318°
2026-05-04 12:58 58.08317 8.27905 29234 ft 351 kts 319°
2026-05-04 12:58 58.10260 8.25095 29597 ft 352 kts 318°
2026-05-04 12:59 58.12212 8.22268 29865 ft 356 kts 318°
2026-05-04 12:59 58.16227 8.16440 29841 ft 375 kts 318°
2026-05-04 13:00 58.20430 8.10324 29849 ft 384 kts 318°
2026-05-04 13:00 58.24661 8.04146 29858 ft 384 kts 318°
2026-05-04 13:01 58.28887 7.97956 29868 ft 383 kts 318°
2026-05-04 13:01 58.33107 7.91756 29860 ft 383 kts 318°
2026-05-04 13:02 58.37313 7.85557 29863 ft 382 kts 318°
2026-05-04 13:02 58.41514 7.79347 29865 ft 382 kts 318°
2026-05-04 13:03 58.45715 7.73117 29864 ft 382 kts 318°
2026-05-04 13:03 58.49904 7.66884 29865 ft 381 kts 317°
2026-05-04 13:04 58.54079 7.60658 29875 ft 381 kts 317°
2026-05-04 13:04 58.58261 7.54394 29881 ft 381 kts 317°
2026-05-04 13:05 58.62388 7.48199 29879 ft 381 kts 317°
2026-05-04 13:05 58.66550 7.41931 29864 ft 382 kts 317°
2026-05-04 13:06 58.70735 7.35610 29869 ft 381 kts 317°
2026-05-04 13:06 58.74900 7.29296 29874 ft 381 kts 317°
2026-05-04 13:07 58.79037 7.23006 29876 ft 381 kts 317°
2026-05-04 13:07 58.83184 7.16681 29875 ft 380 kts 316°
2026-05-04 13:08 58.87295 7.10392 29880 ft 380 kts 316°
2026-05-04 13:08 58.91465 7.03991 29878 ft 380 kts 316°
2026-05-04 13:09 58.95373 6.97980 29885 ft 375 kts 316°
2026-05-04 13:09 58.97401 6.94857 29837 ft 364 kts 316°
2026-05-04 13:09 58.99339 6.91864 29682 ft 359 kts 316°
2026-05-04 13:09 59.01292 6.88840 29365 ft 358 kts 316°
2026-05-04 13:10 59.03219 6.85850 28916 ft 358 kts 316°
2026-05-04 13:10 59.05170 6.82823 28477 ft 359 kts 316°
2026-05-04 13:10 59.07127 6.79779 28026 ft 360 kts 315°
2026-05-04 13:10 59.09080 6.76738 27550 ft 362 kts 315°
2026-05-04 13:11 59.11063 6.73645 27086 ft 365 kts 316°
2026-05-04 13:11 59.13043 6.70555 26639 ft 368 kts 316°
2026-05-04 13:11 59.15053 6.67410 26148 ft 371 kts 315°
2026-05-04 13:11 59.17050 6.64279 25715 ft 368 kts 315°
2026-05-04 13:12 59.18988 6.61237 25283 ft 361 kts 315°
2026-05-04 13:12 59.20940 6.58167 24845 ft 355 kts 315°
2026-05-04 13:12 59.22819 6.55214 24423 ft 351 kts 314°
2026-05-04 13:12 59.24701 6.52247 24013 ft 346 kts 314°
2026-05-04 13:13 59.26574 6.49291 23596 ft 342 kts 314°
2026-05-04 13:13 59.28411 6.46387 23139 ft 337 kts 314°
2026-05-04 13:13 59.30215 6.43533 22698 ft 332 kts 314°
2026-05-04 13:13 59.31998 6.40706 22294 ft 327 kts 313°
2026-05-04 13:14 59.33750 6.37928 21923 ft 322 kts 314°
2026-05-04 13:14 59.35510 6.35137 21534 ft 329 kts 314°
2026-05-04 13:14 59.37296 6.32295 21141 ft 332 kts 313°
2026-05-04 13:14 59.39105 6.29414 20714 ft 340 kts 313°
2026-05-04 13:15 59.40939 6.26488 20311 ft 343 kts 314°
2026-05-04 13:15 59.42805 6.23504 19929 ft 344 kts 313°
2026-05-04 13:15 59.44648 6.20549 19543 ft 340 kts 313°
2026-05-04 13:15 59.46462 6.17639 19183 ft 330 kts 312°
2026-05-04 13:16 59.48196 6.14860 18854 ft 313 kts 312°
2026-05-04 13:16 59.49843 6.12213 18494 ft 299 kts 311°
2026-05-04 13:16 59.51414 6.09684 18145 ft 285 kts 311°
2026-05-04 13:16 59.52917 6.07261 17765 ft 272 kts 311°
2026-05-04 13:17 59.54348 6.04953 17429 ft 261 kts 310°
2026-05-04 13:17 59.55739 6.02708 17105 ft 264 kts 311°
2026-05-04 13:17 59.57275 6.00200 16643 ft 308 kts 312°
2026-05-04 13:17 59.58947 5.97499 16316 ft 308 kts 313°
2026-05-04 13:18 59.60585 5.94852 15983 ft 301 kts 313°
2026-05-04 13:18 59.62192 5.92246 15654 ft 296 kts 313°
2026-05-04 13:18 59.63767 5.89688 15374 ft 289 kts 313°
2026-05-04 13:18 59.65304 5.87188 15055 ft 284 kts 313°
2026-05-04 13:19 59.66957 5.85097 14684 ft 293 kts 330°
2026-05-04 13:19 59.69003 5.84304 14328 ft 306 kts 346°
2026-05-04 13:19 59.71110 5.83951 13985 ft 303 kts 345°
2026-05-04 13:19 59.73203 5.83591 13607 ft 301 kts 346°
2026-05-04 13:20 59.75286 5.83241 13187 ft 299 kts 346°
2026-05-04 13:20 59.77315 5.82902 12800 ft 296 kts 346°
2026-05-04 13:20 59.79357 5.82562 12446 ft 293 kts 346°
2026-05-04 13:20 59.81379 5.82229 12087 ft 291 kts 347°
2026-05-04 13:21 59.83435 5.82526 11673 ft 302 kts
2026-05-04 13:21 59.85495 5.83331 11294 ft 301 kts
2026-05-04 13:21 59.87548 5.84116 10984 ft 301 kts
2026-05-04 13:21 59.89687 5.84915 10560 ft 339 kts
2026-05-04 13:22 59.92198 5.85856 10054 ft 385 kts
2026-05-04 13:22 59.94727 5.86844 9969 ft 357 kts
2026-05-04 13:22 59.97062 5.87747 9853 ft 332 kts
2026-05-04 13:22 59.99299 5.88599 9387 ft 319 kts
2026-05-04 13:23 60.01448 5.89167 8794 ft 303 kts 350°
2026-05-04 13:23 60.03372 5.88127 8340 ft 275 kts 323°
2026-05-04 13:23 60.04731 5.85761 8104 ft 245 kts 300°
2026-05-04 13:23 60.05461 5.82921 8054 ft 216 kts 284°
2026-05-04 13:24 60.05884 5.80197 8007 ft 196 kts 282°
2026-05-04 13:24 60.06145 5.77645 7831 ft 179 kts 265°
2026-05-04 13:24 60.05801 5.75375 7595 ft 167 kts 238°
2026-05-04 13:25 60.03856 5.72720 6597 ft 191 kts 208°
2026-05-04 13:25 60.02628 5.71734 6428 ft 183 kts 207°
2026-05-04 13:25 60.01524 5.70808 6464 ft 154 kts 216°
2026-05-04 13:25 60.00691 5.69563 5941 ft 161 kts 224°
2026-05-04 13:26 59.99738 5.67951 5005 ft 189 kts 223°
2026-05-04 13:26 59.98796 5.66389 4921 ft 162 kts 222°
2026-05-04 13:26 59.97967 5.65011 4775 ft 151 kts 223°
2026-05-04 13:26 59.97136 5.63543 4129 ft 168 kts 232°
2026-05-04 13:27 59.96572 5.61699 4151 ft 154 kts 240°
2026-05-04 13:27 59.96014 5.59776 4372 ft 164 kts 240°
2026-05-04 13:27 59.95455 5.57823 5148 ft 154 kts 242°
2026-05-04 13:27 59.94953 5.56038 6066 ft 151 kts 245°
2026-05-04 13:28 59.94739 5.53927 6085 ft 162 kts 272°
2026-05-04 13:28 59.95118 5.51744 5495 ft 178 kts 300°
2026-05-04 13:28 59.96157 5.50104 4677 ft 207 kts 333°
2026-05-04 13:28 59.97429 5.49311 4838 ft 167 kts 334°
2026-05-04 13:29 59.98520 5.48641 4554 ft 171 kts 335°
2026-05-04 13:29 59.99749 5.47852 3775 ft 193 kts 338°
2026-05-04 13:29 60.00909 5.47142 3991 ft 151 kts 337°
2026-05-04 13:29 60.01963 5.46479 3485 ft 161 kts 338°
2026-05-04 13:30 60.03041 5.45809 3388 ft 167 kts 338°
2026-05-04 13:30 60.04190 5.45092 3319 ft 178 kts 338°
2026-05-04 13:30 60.05393 5.44340 3242 ft 183 kts 339°
2026-05-04 13:30 60.06607 5.43582 3167 ft 183 kts 339°
2026-05-04 13:31 60.07823 5.42821 3084 ft 183 kts 339°
2026-05-04 13:31 60.08934 5.41684 2963 ft 177 kts 311°
2026-05-04 13:31 60.09525 5.39601 2978 ft 173 kts 285°
2026-05-04 13:31 60.09828 5.37271 2972 ft 173 kts 283°
2026-05-04 13:32 60.10103 5.34910 2969 ft 174 kts 282°
2026-05-04 13:32 60.10360 5.32537 2953 ft 174 kts 282°
2026-05-04 13:32 60.10649 5.30185 2961 ft 175 kts 294°
2026-05-04 13:32 60.10695 5.29990 2958 ft 175 kts 298°
2026-05-04 13:33 60.10812 5.29603 2950 ft 174 kts 304°
2026-05-04 13:33 60.11792 5.28211 2979 ft 177 kts 336°
2026-05-04 13:33 60.12989 5.27479 2998 ft 181 kts 343°
2026-05-04 13:33 60.14216 5.26950 2978 ft 181 kts 347°
2026-05-04 13:34 60.15457 5.26500 2751 ft 180 kts 348°
2026-05-04 13:34 60.16681 5.26093 2522 ft 177 kts 349°
2026-05-04 13:34 60.17837 5.25704 2306 ft 158 kts 349°
2026-05-04 13:34 60.18845 5.25365 2111 ft 136 kts 350°
2026-05-04 13:35 60.19767 5.25054 1931 ft 135 kts 350°
2026-05-04 13:35 60.21617 5.24432 1540 ft 135 kts 351°
2026-05-04 13:35 60.22536 5.24121 1348 ft 133 kts 351°
2026-05-04 13:36 60.23443 5.23814 1160 ft 132 kts 351°
2026-05-04 13:36 60.24352 5.23506 961 ft 133 kts 351°
2026-05-04 13:36 60.25270 5.23195 827 ft 133 kts 350°
2026-05-04 13:36 60.26179 5.22886 551 ft 136 kts 351°
2026-05-04 13:37 60.27080 5.22552 394 ft 127 kts 349°
2026-05-04 13:37 60.27967 5.22260 230 ft 128 kts 351°
2026-05-04 13:37 60.28819 5.21994 171 ft 117 kts 349°
2026-05-04 13:37 60.29715 5.21702 287 ft 150 kts 351°
2026-05-04 13:38 60.30795 5.21435 991 ft 160 kts 354°
2026-05-04 13:38 60.31870 5.21278 2029 ft 155 kts 355°
2026-05-04 13:38 60.32938 5.21012 2979 ft 154 kts 351°
2026-05-04 13:38 60.33968 5.20322 3643 ft 172 kts 323°
2026-05-04 13:39 60.34740 5.18171 3923 ft 205 kts 287°
2026-05-04 13:39 60.35026 5.15255 4465 ft 231 kts 278°
2026-05-04 13:39 60.35275 5.11958 4214 ft 235 kts 278°
2026-05-04 13:39 60.35481 5.08907 4464 ft 206 kts 277°
2026-05-04 13:40 60.35670 5.06192 4390 ft 193 kts 277°
2026-05-04 13:40 60.35808 5.03245 2923 ft 239 kts 267°
2026-05-04 13:40 60.35130 5.00017 2514 ft 247 kts 227°
2026-05-04 13:40 60.33773 4.98507 3116 ft 214 kts 197°
2026-05-04 13:41 60.32289 4.98458 2943 ft 213 kts 174°
2026-05-04 13:41 60.30875 4.98870 2926 ft 197 kts 173°
2026-05-04 13:41 60.29583 4.99252 2957 ft 186 kts 171°
2026-05-04 13:42 60.26539 5.00022 2947 ft 225 kts 177°
2026-05-04 13:42 60.25041 5.00252 2964 ft 208 kts 177°
2026-05-04 13:42 60.23611 5.00472 2973 ft 206 kts 178°
2026-05-04 13:42 60.22176 5.00697 2975 ft 206 kts 177°
2026-05-04 13:43 60.20683 5.00927 2801 ft 237 kts 177°
2026-05-04 13:43 60.19010 5.01416 2509 ft 243 kts 159°
2026-05-04 13:43 60.17702 5.03326 2476 ft 225 kts 125°
2026-05-04 13:43 60.17175 5.06079 2455 ft 205 kts 90°
2026-05-04 13:44 60.17269 5.08772 2497 ft 184 kts 79°
2026-05-04 13:44 60.17430 5.11205 2482 ft 167 kts 78°
2026-05-04 13:44 60.17786 5.13451 2320 ft 184 kts 56°
2026-05-04 13:44 60.18605 5.15932 2089 ft 232 kts 52°
2026-05-04 13:45 60.19527 5.18583 1851 ft 228 kts 53°
2026-05-04 13:45 60.20422 5.21142 1651 ft 217 kts 52°
2026-05-04 13:45 60.21511 5.23002 1451 ft 199 kts 20°
2026-05-04 13:45 60.22803 5.23630 1249 ft 183 kts
2026-05-04 13:46 60.23991 5.23651 1028 ft 158 kts 354°
2026-05-04 13:46 60.24981 5.23309 850 ft 133 kts 348°
2026-05-04 13:46 60.25836 5.23001 663 ft 118 kts 351°
2026-05-04 13:46 60.26696 5.22713 505 ft 130 kts 352°
2026-05-04 13:47 60.27611 5.22387 348 ft 138 kts 351°
2026-05-04 13:47 60.28532 5.22088 176 ft 127 kts 351°
2026-05-04 13:47 60.29282 5.21838 166 ft 77 kts 350°
2026-05-04 13:47 60.29563 5.21744 169 ft 14 kts 351°
2026-05-04 13:48 60.29579 5.21739 170 ft 3 kts 351°
2026-05-04 13:48 60.29637 5.21720 171 ft 11 kts 351°
2026-05-04 13:48 60.29693 5.21719 172 ft 7 kts 24°
2026-05-04 13:48 60.29717 5.21778 171 ft 5 kts 72°
2026-05-04 13:49 60.29719 5.21844 171 ft 5 kts 90°
2026-05-04 13:49 60.29719 5.21927 171 ft 7 kts 90°
2026-05-04 13:49 60.29698 5.22013 171 ft 7 kts 146°
2026-05-04 13:49 60.29652 5.22035 170 ft 8 kts 172°
2026-05-04 13:50 60.29589 5.22050 170 ft 10 kts 172°
2026-05-04 13:50 60.29511 5.22078 169 ft 12 kts 168°
2026-05-04 13:50 60.29417 5.22109 169 ft 15 kts 173°
2026-05-04 13:50 60.29303 5.22137 168 ft 18 kts 173°
2026-05-04 13:51 60.29171 5.22169 166 ft 20 kts 173°